| time (UTC) | temp F | wind direction | speed knots | gust knots | rain 1hr in | rain 24hr in | rain mn in | humidity % | barometer mb |
| 20260510103016 | 44 | 0.0 | 2.6 | 0.00 | 0.28 | 0.02 | 91 | 1011.3 | |
| 20260510100016 | 44 | 0.0 | 2.6 | 0.00 | 0.28 | 0.02 | 91 | 1011.2 | |
| 20260510093016 | 45 | 0.0 | 1.7 | 0.00 | 0.28 | 0.02 | 91 | 1010.7 | |
| 20260510090017 | 45 | 0.0 | 0.9 | 0.00 | 0.28 | 0.02 | 91 | 1010.3 | |
| 20260510083017 | 45 | 0.0 | 0.0 | 0.00 | 0.28 | 0.02 | 91 | 1009.8 | |
| 20260510080016 | 45 | 0.0 | 0.9 | 0.00 | 0.28 | 0.02 | 91 | 1009.2 | |
| 20260510073016 | 46 | 0.0 | 0.9 | 0.00 | 0.28 | 0.02 | 91 | 1008.8 | |
| 20260510070016 | 47 | 0.0 | 0.9 | 0.00 | 0.28 | 0.02 | 91 | 1008.6 | |
| 20260510063016 | 48 | 0.0 | 2.6 | 0.00 | 0.28 | 0.02 | 90 | 1008.3 | |
| 20260510060016 | 48 | 158 | 0.9 | 5.2 | 0.02 | 0.28 | 0.02 | 90 | 1008.3 |
| 20260510053016 | 51 | 158 | 1.7 | 7.8 | 0.02 | 0.28 | 0.02 | 89 | 1007.4 |
| 20260510050016 | 55 | 0.0 | 4.3 | 0.00 | 0.26 | 0.00 | 90 | 1007.3 | |
| 20260510043036 | 52 | 0.0 | 0.9 | 0.00 | 0.27 | 0.00 | 91 | 1005.8 | |
| 20260510040016 | 54 | 0.0 | 1.7 | 0.00 | 0.29 | 0.29 | 89 | 1005.7 | |
| 20260510033056 | 53 | 0.0 | 2.6 | 0.00 | 0.30 | 0.29 | 91 | 1005.7 | |
| 20260510030017 | 54 | 0.0 | 2.6 | 0.00 | 0.30 | 0.29 | 90 | 1005.5 | |
| 20260510023037 | 53 | 0.0 | 3.5 | 0.00 | 0.30 | 0.29 | 92 | 1005.4 | |
| 20260510020017 | 52 | 0.0 | 0.9 | 0.00 | 0.30 | 0.29 | 92 | 1005.2 | |
| 20260510013037 | 52 | 0.0 | 0.9 | 0.00 | 0.30 | 0.29 | 91 | 1005.1 | |
| 20260510010037 | 54 | 0.0 | 2.6 | 0.00 | 0.30 | 0.29 | 91 | 1004.5 | |
| 20260510003016 | 55 | 45 | 0.9 | 4.3 | 0.00 | 0.31 | 0.29 | 90 | 1004.7 |
| 20260510000017 | 55 | 45 | 0.9 | 5.2 | 0.02 | 0.33 | 0.29 | 91 | 1004.5 |
| 20260509233016 | 54 | 90 | 0.9 | 6.1 | 0.26 | 0.37 | 0.29 | 91 | 1004.3 |
| 20260509230016 | 54 | 113 | 2.6 | 16.5 | 0.24 | 0.39 | 0.27 | 90 | 1004.9 |
| 20260509223016 | 67 | 45 | 1.7 | 8.7 | 0.00 | 0.16 | 0.03 | 57 | 1002.5 |
| 20260509220037 | 68 | 45 | 2.6 | 9.6 | 0.00 | 0.16 | 0.03 | 57 | 1002.5 |
| 20260509213016 | 71 | 45 | 2.6 | 12.2 | 0.00 | 0.16 | 0.03 | 53 | 1002.1 |
| 20260509210017 | 71 | 45 | 2.6 | 8.7 | 0.00 | 0.16 | 0.03 | 54 | 1002.6 |
| 20260509203037 | 71 | 45 | 1.7 | 8.7 | 0.00 | 0.16 | 0.03 | 57 | 1003.2 |
| 20260509200017 | 71 | 45 | 2.6 | 7.8 | 0.00 | 0.16 | 0.03 | 59 | 1003.4 |
| 20260509193016 | 70 | 45 | 2.6 | 6.1 | 0.00 | 0.16 | 0.03 | 58 | 1004.0 |
| 20260509190016 | 69 | 45 | 1.7 | 6.1 | 0.00 | 0.16 | 0.03 | 61 | 1004.3 |
| 20260509183016 | 69 | 45 | 1.7 | 7.0 | 0.00 | 0.16 | 0.03 | 58 | 1004.5 |
| 20260509180016 | 68 | 45 | 1.7 | 8.7 | 0.00 | 0.16 | 0.03 | 60 | 1004.5 |
| 20260509173016 | 68 | 45 | 1.7 | 7.8 | 0.00 | 0.16 | 0.03 | 64 | 1004.8 |
| 20260509170017 | 66 | 45 | 1.7 | 7.0 | 0.00 | 0.16 | 0.03 | 66 | 1004.8 |
| 20260509163016 | 63 | 45 | 1.7 | 7.0 | 0.00 | 0.16 | 0.03 | 70 | 1004.7 |
| 20260509160016 | 62 | 113 | 0.9 | 6.1 | 0.00 | 0.16 | 0.03 | 73 | 1005.5 |
| 20260509153016 | 59 | 45 | 1.7 | 7.0 | 0.00 | 0.16 | 0.03 | 78 | 1005.4 |
| 20260509150017 | 59 | 113 | 1.7 | 11.3 | 0.00 | 0.16 | 0.03 | 83 | 1005.2 |
| 20260509143057 | 58 | 45 | 0.9 | 7.8 | 0.00 | 0.16 | 0.03 | 88 | 1005.3 |
| 20260509140016 | 57 | 45 | 0.9 | 5.2 | 0.00 | 0.16 | 0.03 | 89 | 1005.2 |
| 20260509133016 | 55 | 0.0 | 2.6 | 0.00 | 0.16 | 0.03 | 91 | 1005.3 | |
| 20260509130016 | 54 | 0.0 | 2.6 | 0.00 | 0.16 | 0.03 | 92 | 1005.4 | |
| 20260509123016 | 53 | 0.0 | 2.6 | 0.00 | 0.17 | 0.03 | 92 | 1005.6 | |
| 20260509120016 | 52 | 0.0 | 2.6 | 0.00 | 0.17 | 0.03 | 92 | 1005.6 | |
| 20260509113016 | 51 | 0.0 | 1.7 | 0.00 | 0.18 | 0.03 | 92 | 1005.5 | |
| 20260509110016 | 51 | 0.0 | 1.7 | 0.00 | 0.18 | 0.03 | 92 | 1005.2 |